[[{"header":{"parameterUnit":"m.s-1","parameterCategory":1,"la1":30.2991,"la2":30.254,"lo1":-89.0895,"lo2":-89.0444,"dy":0.0017,"dx":0.0017,"nx":28,"ny":28,"refTime":"2023-10-19T03:00:00:Z","depth":0,"parameterNumber":2,"parameterNumberName":"U-component_of_WINDS"},"data":[0,0,0,0,0,0,0,0,0,0,0,0,0,0,0,0,0,0,0,0,0,0,0,0,0,0,0,0,0,0,0,0,0,0,0,0,0,0,0,0,0,0,0,0,0,0,0,0,0,0,0,0,0,0,0,0,0,0,-0.6459,-0.6458,0,-0.6351,-0.635,-0.6349,-0.6284,-0.6283,-0.6283,-0.6283,-0.6169,-0.6167,-0.6164,0,0,0,0,0,0,0,0,0,0,0,0,0,-0.6603,-0.6601,-0.6459,-0.6457,-0.6456,-0.6352,-0.635,-0.6349,-0.6284,-0.6283,-0.6283,-0.6283,-0.617,-0.6167,-0.6164,0,0,0,0,0,0,0,0,0,0,0,0,0,-0.6523,-0.66,-0.6459,-0.6411,-0.6406,-0.6352,-0.635,-0.6348,-0.6284,-0.6283,-0.6283,-0.6283,-0.6171,-0.6167,-0.6163,-0.6147,0,0,-0.6151,-0.6149,0,0,0,0,0,0,0,0,-0.6527,-0.6517,-0.642,-0.6414,-0.6408,-0.6331,-0.6359,-0.6281,-0.6284,-0.633,-0.6283,-0.6282,-0.6223,-0.6215,-0.6195,-0.6142,-0.6137,-0.615,-0.6148,-0.6146,-0.6145,0,0,0,0,0,0,0,-0.6533,-0.6521,-0.6416,-0.6418,-0.6411,-0.6394,-0.6382,-0.6344,-0.628,-0.6326,-0.6321,-0.6309,-0.622,-0.62,-0.6192,-0.6135,-0.615,-0.6147,-0.6144,-0.6143,-0.6061,-0.6061,0,0,0,0,0,0,-0.6547,-0.6527,-0.642,-0.6413,-0.6468,-0.6391,-0.6378,-0.6356,-0.6281,-0.6269,-0.631,-0.6307,-0.6207,-0.6197,-0.6188,-0.6163,-0.6146,-0.6142,-0.614,-0.6061,-0.6061,-0.6061,0,0,0,0,0,0,-0.655,-0.6538,-0.6424,-0.6468,-0.6453,-0.639,-0.6365,-0.6354,-0.6334,-0.6269,-0.6256,-0.6301,-0.6206,-0.6194,-0.6158,-0.6158,-0.614,-0.6137,-0.606,-0.6061,-0.6061,-0.6113,0,0,0,0,0,0,-0.6554,-0.6539,-0.6534,-0.6469,-0.645,-0.6397,-0.6365,-0.6352,-0.6327,-0.6322,-0.6257,-0.6246,-0.6205,-0.6164,-0.6154,-0.6152,-0.6134,-0.606,-0.6061,-0.6061,-0.6111,-0.6116,-0.6119,0,0,0,0,0,-0.656,-0.6552,-0.6534,-0.6521,-0.6442,-0.6397,-0.6386,-0.634,-0.6328,-0.6321,-0.6278,-0.6248,-0.616,-0.6161,-0.6149,-0.6146,-0.606,-0.606,-0.6061,-0.611,-0.6115,-0.6119,0,0,0,0,0,0,-0.6618,-0.6543,-0.6522,-0.6493,-0.6452,-0.6386,-0.6376,-0.6348,-0.6308,-0.6305,-0.6248,-0.6234,-0.6203,-0.6171,-0.6173,-0.6125,-0.6106,-0.6104,-0.6147,-0.6152,-0.6156,-0.6163,-0.613,0,0,0,0,0,-0.6628,-0.6599,-0.6534,-0.6515,-0.6496,-0.644,-0.6418,-0.6386,-0.6341,-0.6323,-0.6278,-0.6234,-0.6196,-0.6172,-0.6134,-0.6107,-0.609,-0.6098,-0.6103,-0.6106,-0.6105,-0.6086,-0.6088,-0.6064,-0.6064,-0.6064,0,0,-0.6647,-0.6603,-0.6588,-0.6526,-0.649,-0.6459,-0.6425,-0.6395,-0.6371,-0.6318,-0.6281,-0.6246,-0.6193,-0.6161,-0.6145,-0.6133,-0.6108,-0.6107,-0.611,-0.6107,-0.6087,-0.6089,-0.6091,-0.6064,-0.6064,-0.6064,0,0,-0.6667,-0.6631,-0.6611,-0.6576,-0.6522,-0.6485,-0.648,-0.6418,-0.6393,-0.6356,-0.6315,-0.6285,-0.6221,-0.6185,-0.6158,-0.6162,-0.6132,-0.6151,-0.6171,-0.6154,-0.6156,-0.6157,-0.6157,-0.6158,-0.6151,-0.6151,-0.6151,0,-0.6698,-0.6651,-0.6604,-0.6575,-0.6548,-0.6499,-0.6477,-0.6445,-0.6382,-0.6363,-0.6352,-0.627,-0.6231,-0.6189,-0.619,-0.6171,-0.6162,-0.6158,-0.616,-0.616,-0.6161,-0.616,-0.616,-0.6153,-0.6153,-0.6153,-0.6152,0,-0.669,-0.6659,-0.6648,-0.6589,-0.6561,-0.6536,-0.6483,-0.646,-0.643,-0.6393,-0.6354,-0.6306,-0.6256,-0.6244,-0.6215,-0.6197,-0.6191,-0.6171,-0.615,-0.6167,-0.6165,-0.6164,-0.6157,-0.6156,-0.6155,-0.6155,0,0,-0.6744,-0.6658,-0.6655,-0.6626,-0.6564,-0.6537,-0.6509,-0.6461,-0.6442,-0.64,-0.6373,-0.632,-0.63,-0.627,-0.6236,-0.622,-0.6225,-0.6201,-0.6199,-0.6206,-0.62,-0.6215,-0.6216,-0.6205,-0.6205,-0.6205,-0.6204,0,-0.6753,-0.6701,-0.6657,-0.662,-0.6589,-0.6542,-0.6517,-0.6475,-0.6439,-0.6407,-0.6367,-0.633,-0.6307,-0.6288,-0.6271,-0.6228,-0.6223,-0.6228,-0.6178,-0.6177,-0.6191,-0.6215,-0.6231,-0.6233,-0.6203,-0.6203,-0.6203,0,-0.6757,-0.6717,-0.6678,-0.6616,-0.6601,-0.658,-0.6532,-0.6502,-0.6452,-0.6427,-0.6393,-0.6357,-0.6323,-0.6307,-0.6259,-0.6263,-0.624,-0.6216,-0.6214,-0.6207,-0.619,-0.6207,-0.6233,-0.6233,-0.6202,-0.6202,-0.6202,0,-0.6798,-0.6734,-0.6702,-0.6679,-0.6607,-0.6593,-0.6562,-0.6512,-0.6486,-0.6443,-0.6425,-0.6379,-0.6354,-0.6318,-0.627,-0.6263,-0.6226,-0.6206,-0.6203,-0.6204,-0.6196,-0.6197,-0.6217,-0.6184,-0.6184,-0.6184,-0.6184,0,-0.6812,-0.6789,-0.6719,-0.6699,-0.6671,-0.662,-0.6594,-0.6559,-0.6515,-0.6486,-0.6442,-0.6416,-0.6355,-0.6321,-0.6283,-0.6247,-0.6236,-0.6214,-0.6204,-0.6217,-0.622,-0.62,-0.6198,-0.6184,-0.6184,-0.6184,-0.6184,0,-0.6852,-0.6805,-0.6766,-0.6701,-0.6684,-0.6667,-0.661,-0.6588,-0.6551,-0.6515,-0.6503,-0.6443,-0.6401,-0.635,-0.629,-0.6265,-0.6232,-0.6218,-0.6249,-0.6243,-0.6242,-0.6242,-0.6249,-0.6246,-0.6217,-0.6217,-0.6217,0,-0.6864,-0.6845,-0.6779,-0.6756,-0.6727,-0.6692,-0.6665,-0.6613,-0.6587,-0.6528,-0.6513,-0.6467,-0.6427,-0.6361,-0.6311,-0.6265,-0.6248,-0.6254,-0.6241,-0.6254,-0.6246,-0.6248,-0.6245,-0.6257,-0.6258,-0.6258,-0.6259,0,-0.6889,-0.6866,-0.6829,-0.6784,-0.6752,-0.6714,-0.6673,-0.6657,-0.6597,-0.6569,-0.6525,-0.6495,-0.6434,-0.6388,-0.6336,-0.6302,-0.6269,-0.6263,-0.626,-0.6272,-0.6291,-0.6279,-0.6257,-0.6263,-0.6263,-0.6262,-0.6262,-0.6262,-0.6914,-0.6895,-0.6844,-0.6804,-0.6768,-0.6731,-0.6707,-0.6666,-0.6629,-0.6576,-0.6547,-0.6504,-0.6453,-0.6379,-0.6347,-0.631,-0.6299,-0.6295,-0.6293,-0.6292,-0.6296,-0.6298,-0.6301,-0.6301,-0.63,-0.63,-0.63,0,-0.6935,-0.6901,-0.6864,-0.6809,-0.6777,-0.6751,-0.6704,-0.6678,-0.6641,-0.6597,-0.6559,-0.6507,-0.6462,-0.6409,-0.636,-0.6342,-0.6326,-0.6331,-0.6331,-0.6323,-0.6309,-0.6316,-0.6344,-0.6344,-0.6344,-0.6344,-0.6344,-0.6344,-0.6943,-0.6908,-0.6879,-0.6826,-0.679,-0.6748,-0.6723,-0.6688,-0.6652,-0.6597,-0.656,-0.6526,-0.6477,-0.6425,-0.6382,-0.6367,-0.635,-0.6359,-0.634,-0.6328,-0.6324,-0.6321,-0.6327,-0.6357,-0.6357,-0.6357,-0.6357,-0.6357]},{"header":{"parameterUnit":"m.s-1","parameterCategory":1,"la1":30.2991,"la2":30.254,"lo1":-89.0895,"lo2":-89.0444,"dy":0.0017,"dx":0.0017,"nx":28,"ny":28,"refTime":"2023-10-19T03:00:00:Z","depth":0,"parameterNumber":3,"parameterNumberName":"V-component_of_WINDS"},"data":[0,0,0,0,0,0,0,0,0,0,0,0,0,0,0,0,0,0,0,0,0,0,0,0,0,0,0,0,0,0,0,0,0,0,0,0,0,0,0,0,0,0,0,0,0,0,0,0,0,0,0,0,0,0,0,0,0,0,2.3415,2.3415,0,2.3366,2.3366,2.3365,2.3375,2.3376,2.3377,2.3378,2.3321,2.3319,2.3317,0,0,0,0,0,0,0,0,0,0,0,0,0,2.3511,2.3509,2.3416,2.3415,2.3414,2.3366,2.3366,2.3365,2.3375,2.3376,2.3377,2.3378,2.3322,2.3319,2.3317,0,0,0,0,0,0,0,0,0,0,0,0,0,2.3466,2.3509,2.3416,2.3414,2.3413,2.3367,2.3366,2.3365,2.3375,2.3376,2.3377,2.3379,2.3323,2.332,2.3316,2.3267,0,0,2.3305,2.3304,0,0,0,0,0,0,0,0,2.3469,2.3463,2.3414,2.3414,2.3413,2.3378,2.3379,2.3332,2.3374,2.3389,2.3378,2.3379,2.3339,2.3334,2.3322,2.3265,2.3262,2.3305,2.3303,2.3302,2.3301,0,0,0,0,0,0,0,2.3472,2.3465,2.3396,2.3414,2.3413,2.3413,2.3408,2.337,2.3357,2.3388,2.3388,2.3383,2.3339,2.3325,2.332,2.3261,2.3305,2.3302,2.33,2.3299,2.3158,2.3156,0,0,0,0,0,0,2.3477,2.3468,2.3397,2.3394,2.3445,2.341,2.3405,2.3388,2.3357,2.3354,2.3382,2.3383,2.333,2.3325,2.3319,2.3257,2.3302,2.3298,2.3296,2.316,2.3158,2.3156,0,0,0,0,0,0,2.3479,2.3471,2.3399,2.3431,2.3422,2.3407,2.3388,2.3386,2.3373,2.3353,2.335,2.3371,2.3331,2.3323,2.328,2.3255,2.3297,2.3293,2.3162,2.3159,2.3157,2.3135,0,0,0,0,0,0,2.3482,2.3471,2.3454,2.3431,2.3421,2.3363,2.3387,2.3384,2.3367,2.3369,2.3342,2.3338,2.3332,2.3285,2.3276,2.3251,2.3291,2.3164,2.316,2.3158,2.3138,2.3132,2.3127,0,0,0,0,0,2.3485,2.3449,2.3453,2.3445,2.3399,2.3362,2.3356,2.3351,2.3366,2.3347,2.3333,2.3339,2.326,2.328,2.3271,2.3244,2.3165,2.3161,2.3158,2.314,2.3133,2.3127,0,0,0,0,0,0,2.3468,2.3446,2.345,2.3407,2.3386,2.3364,2.334,2.3344,2.3318,2.332,2.3314,2.3307,2.3262,2.3249,2.3272,2.3193,2.3214,2.3208,2.3204,2.3197,2.3192,2.3195,2.3288,0,0,0,0,0,2.346,2.3434,2.3415,2.3378,2.3368,2.3356,2.3339,2.3337,2.3315,2.3306,2.329,2.3266,2.3236,2.3216,2.3187,2.3136,2.3128,2.3113,2.3108,2.3103,2.3098,2.3067,2.3059,2.3144,2.3144,2.3144,0,0,2.3442,2.3426,2.341,2.3374,2.3358,2.3329,2.3348,2.3317,2.3294,2.3301,2.3258,2.3245,2.3218,2.317,2.3148,2.3158,2.3073,2.3099,2.3095,2.3092,2.3062,2.3054,2.3047,2.3141,2.3142,2.3142,0,0,2.3393,2.338,2.3347,2.333,2.3306,2.3298,2.329,2.3267,2.3259,2.3217,2.322,2.3192,2.3141,2.3121,2.3104,2.3046,2.3049,2.3036,2.3008,2.2978,2.2971,2.2965,2.2942,2.2934,2.3031,2.3031,2.3031,0,2.3373,2.3331,2.3329,2.3296,2.3279,2.3285,2.325,2.3233,2.32,2.3187,2.3199,2.3133,2.3116,2.3062,2.3047,2.3034,2.3022,2.3039,2.2973,2.2967,2.2961,2.2939,2.2931,2.303,2.303,2.303,2.303,0,2.3306,2.3276,2.3252,2.3221,2.3201,2.3168,2.3158,2.3138,2.3137,2.3127,2.3082,2.3061,2.3027,2.3014,2.3013,2.2959,2.2965,2.2975,2.2995,2.2952,2.293,2.2922,2.3027,2.3028,2.3028,2.3029,0,0,2.3246,2.3214,2.3204,2.319,2.3163,2.3139,2.3104,2.3072,2.3054,2.303,2.2999,2.2955,2.2963,2.2944,2.294,2.2914,2.2866,2.2927,2.2926,2.2914,2.2802,2.2794,2.2784,2.2869,2.2867,2.2866,2.2804,0,2.3193,2.3134,2.313,2.3076,2.3047,2.3051,2.302,2.2999,2.2988,2.296,2.2948,2.2915,2.293,2.2918,2.2893,2.2878,2.2843,2.2882,2.2837,2.2835,2.2842,2.2774,2.2765,2.2708,2.2796,2.2794,2.2793,0,2.3124,2.31,2.3043,2.3018,2.3006,2.2979,2.2948,2.2922,2.2897,2.2891,2.2869,2.2868,2.2829,2.2852,2.2797,2.2823,2.2804,2.2793,2.2791,2.2785,2.2811,2.2764,2.269,2.268,2.2781,2.2782,2.2783,0,2.3083,2.3036,2.2995,2.2983,2.2954,2.2934,2.2921,2.2897,2.2877,2.285,2.2836,2.2804,2.2786,2.2759,2.2749,2.2767,2.2693,2.2715,2.2684,2.2684,2.2667,2.2668,2.2587,2.2658,2.2658,2.2658,2.2659,0,2.3024,2.2989,2.2977,2.2951,2.291,2.2905,2.2864,2.2851,2.283,2.28,2.2802,2.2773,2.2762,2.273,2.2722,2.2676,2.2668,2.2659,2.2657,2.2658,2.2659,2.2645,2.2648,2.2656,2.2657,2.2657,2.2658,0,2.2972,2.2963,2.2918,2.2894,2.2887,2.2858,2.2836,2.281,2.28,2.2762,2.2752,2.2735,2.2698,2.2685,2.264,2.2634,2.258,2.2582,2.2589,2.2588,2.2557,2.2559,2.2462,2.2447,2.253,2.2529,2.2528,0,2.2934,2.2907,2.288,2.2861,2.2847,2.2817,2.2797,2.2789,2.2768,2.2736,2.2713,2.2677,2.2648,2.2588,2.257,2.2534,2.2534,2.2502,2.2529,2.253,2.2531,2.2532,2.2528,2.2497,2.2496,2.2496,2.2495,0,2.2867,2.2864,2.2836,2.2806,2.2782,2.2758,2.2734,2.2718,2.2706,2.2682,2.2645,2.2622,2.2576,2.2539,2.2503,2.2486,2.2487,2.2487,2.2477,2.2478,2.2482,2.2477,2.2573,2.2489,2.249,2.249,2.249,2.2491,2.282,2.2795,2.2772,2.274,2.2721,2.2698,2.2672,2.2659,2.2629,2.2592,2.2589,2.2548,2.252,2.2472,2.2454,2.242,2.2428,2.2415,2.2411,2.2408,2.2404,2.2489,2.2413,2.2414,2.2414,2.2414,2.2414,0,2.2751,2.2736,2.2707,2.2674,2.2648,2.2654,2.2627,2.2605,2.257,2.2545,2.2516,2.2472,2.2436,2.2414,2.2377,2.2354,2.2353,2.2344,2.2345,2.234,2.24,2.2411,2.2345,2.2345,2.2345,2.2345,2.2345,2.2345,2.2713,2.267,2.2663,2.261,2.2595,2.2557,2.2541,2.2519,2.2499,2.245,2.2421,2.2407,2.2383,2.2344,2.2309,2.2304,2.2289,2.2278,2.2273,2.2329,2.2336,2.2343,2.2353,2.2276,2.2276,2.2215,2.2215,2.2214]}]]